CDT,Max TemperatureF,Mean TemperatureF,Min TemperatureF,Max Dew PointF,MeanDew PointF,Min DewpointF,Max Humidity, Mean Humidity, Min Humidity, Max Sea Level PressureIn, Mean Sea Level PressureIn, Min Sea Level PressureIn, Max VisibilityMiles, Mean VisibilityMiles, Min VisibilityMiles, Max Wind SpeedMPH, Mean Wind SpeedMPH, Max Gust SpeedMPH,PrecipitationIn, CloudCover, Events, WindDirDegrees
2013-3-1,30,28,26,27,25,22,96,87,72,30.24,30.19,30.10,10,8,2,14,8,17,0.01,8,Snow,328
2013-3-2,31,25,19,22,20,16,93,82,56,30.31,30.26,30.24,10,10,7,13,10,18,0.00,7,Snow,331
2013-3-3,44,30,15,27,20,15,96,67,33,30.23,30.08,29.93,10,10,10,14,4,21,0.00,4,,141
2013-3-4,57,46,35,43,36,27,98,71,53,29.91,29.76,29.66,10,10,10,17,12,23,0.00,6,,140
2013-3-5,44,37,29,43,28,19,100,83,51,30.25,30.02,29.80,10,8,1,24,11,32,0.08,8,Rain-Snow,301
2013-3-6,37,32,26,23,21,19,82,68,54,30.42,30.35,30.26,10,10,10,17,11,34,0.00,4,,346
2013-3-7,55,40,25,31,26,22,86,61,32,30.37,30.30,30.22,10,10,10,15,7,,0.00,2,,121
2013-3-8,56,44,32,32,30,25,92,59,33,30.35,30.25,30.12,10,10,10,16,10,20,0.00,4,,138
2013-3-9,70,56,41,50,38,30,93,63,23,30.10,29.94,29.73,10,10,7,23,13,31,0.12,7,Rain,150
2013-3-10,59,46,33,55,49,33,100,95,63,29.84,29.72,29.63,10,8,2,20,9,30,1.17,8,Rain-Thunderstorm,217
2013-3-11,37,32,27,33,28,24,100,89,60,30.04,29.86,29.78,10,10,7,14,10,21,0.00,7,,273
2013-3-12,50,37,24,25,23,19,96,58,32,30.27,30.15,30.04,10,10,10,15,7,29,0.00,3,,280
2013-3-13,44,35,26,23,18,13,78,54,29,30.47,30.39,30.29,10,10,10,14,8,21,0.00,0,,317
2013-3-14,71,50,28,40,28,18,72,48,27,30.39,30.21,30.07,10,10,10,17,7,30,0.00,3,,191
2013-3-15,80,63,46,45,41,38,78,48,25,30.06,29.88,29.72,10,10,10,16,7,24,0.00,1,,225
2013-3-16,65,52,38,47,40,37,100,77,45,30.00,29.91,29.70,10,9,2,14,9,21,0.38,6,Rain,9
2013-3-17,37,36,32,38,35,32,100,100,93,30.03,29.85,29.72,10,7,2,17,11,25,2.31,8,Rain-Thunderstorm,79
2013-3-18,51,43,35,39,35,25,100,89,43,30.06,29.79,29.68,10,6,0,13,5,22,0.00,6,Fog-Rain,293
2013-3-19,46,36,27,32,24,13,99,65,29,30.26,30.20,30.08,10,10,10,10,4,,0.00,4,,311
2013-3-20,38,32,24,32,19,3,100,63,23,30.32,30.22,30.12,10,10,7,18,8,31,0.00,3,,296
2013-3-21,35,28,20,30,22,9,100,75,35,30.13,29.97,29.92,10,7,1,9,4,,0.06,7,Snow,90
2013-3-22,35,32,30,36,31,30,100,100,99,30.01,29.95,29.91,10,8,3,10,6,,0.03,8,Snow,88
2013-3-23,47,41,34,41,37,30,100,86,58,30.01,29.87,29.78,10,10,4,13,6,17,0.08,8,Rain,51
2013-3-24,38,34,28,39,32,25,100,97,86,29.99,29.75,29.59,10,4,0,21,12,30,0.24,8,Rain-Snow,328
2013-3-25,33,28,23,28,27,21,100,90,80,30.29,30.13,29.94,10,7,1,17,11,24,0.01,8,Rain-Snow,292
2013-3-26,40,31,22,28,24,21,100,78,49,30.41,30.34,30.24,10,10,10,10,7,,0.00,3,Snow,294
2013-3-27,51,36,23,32,26,22,94,62,38,30.38,30.33,30.27,10,10,10,9,5,,0.00,5,,109
2013-3-28,62,51,41,40,36,31,73,58,40,30.28,30.23,30.17,10,10,10,14,9,,0.00,6,Rain,127
2013-3-29,62,54,46,54,48,41,100,88,53,30.22,30.19,30.15,10,8,1,13,6,18,1.09,6,Rain-Thunderstorm,106
2013-3-30,52,48,44,52,48,44,100,97,86,30.17,30.04,29.91,10,8,1,18,9,,0.16,7,Rain,142
2013-3-31,66,56,46,54,46,33,100,87,30,29.97,29.93,29.89,10,5,0,10,4,20,0.16,4,Fog-Rain,290